Weather History for Columbus AFB, MS

Change the Weather History Date:

Sunday, February 10, 2013

  Actual Average Record
Temperature  
Mean Temperature 52 °F -  
Max Temperature 60 °F 56 °F 77 °F (1999)
Min Temperature 43 °F 37 °F 19 °F (2011)
Degree Days  
Heating Degree Days 14    
Growing Degree Days 2 (Base 50)    
Moisture  
Dew Point 52 °F    
Average Humidity 91    
Maximum Humidity 100    
Minimum Humidity 59    
Precipitation  
Precipitation 0.91 in - - ()
Sea Level Pressure  
Sea Level Pressure 29.98 in    
Wind  
Wind Speed 10 mph (SSE)    
Max Wind Speed 20 mph    
Max Gust Speed 24 mph    
Visibility 8 miles    
Events Rain , Thunderstorm    
Averages and records for this station are not official NWS values.
T = Trace of Precipitation, MM = Missing Value Source: NWS Daily Summary

Daily Weather History Graph

Daily Weather History Graph

Search for Another Location

Airport:

Trip Planner

Search our weather history database for the weather conditions in past years. The results will help you decide how hot, cold, wet, or windy it might be!

Date:

Astronomy

Feb. 10, 2013 Rise Set
Actual Time 6:42 AM CST 5:33 PM CST
Civil Twilight 6:16 AM CST 5:59 PM CST
Nautical Twilight 5:47 AM CST 6:28 PM CST
Astronomical Twilight 5:18 AM CST 6:58 PM CST
Moon 6:35 AM CST (2/10) 6:19 PM CST (2/10)
Length of Visible Light 11h 42m
Length of Day
10h 51m
New Moon, 0% of the Moon is Illuminated
Feb 10
New Moon
Feb 17
First Quarter
Feb 25
Full
Mar 4
Last Quarter
Mar 11
New

Hourly Weather History & Observations

Time (CST) Temp. Windchill Dew Point Humidity Pressure Visibility Wind Dir Wind Speed Gust Speed Precip Events Conditions
12:58 AM 43.9 °F 42.3 °F 35.6 °F 73% 30.14 in 10.0 mi ESE 3.5 mph - N/A   Mostly Cloudy
1:58 AM 43.7 °F 39.1 °F 35.8 °F 74% 30.13 in 10.0 mi SE 8.1 mph - N/A   Partly Cloudy
2:58 AM 50.0 °F - 37.8 °F 63% 30.09 in 10.0 mi ESE 11.5 mph - N/A   Overcast
3:58 AM 49.1 °F - 38.1 °F 66% 30.07 in 10.0 mi ESE 10.4 mph - N/A   Mostly Cloudy
4:53 AM 50.0 °F - 37.4 °F 62% 30.04 in 10.0 mi SE 10.4 mph - N/A   Mostly Cloudy
4:58 AM 49.8 °F - 36.9 °F 61% 30.04 in 10.0 mi SE 10.4 mph - N/A   Mostly Cloudy
5:58 AM 51.6 °F - 37.8 °F 59% 30.08 in 10.0 mi SE 8.1 mph - N/A   Overcast
6:34 AM 51.8 °F - 39.2 °F 62% 30.07 in 10.0 mi SE 9.2 mph - N/A Rain Light Rain
6:47 AM 50.0 °F - 41.0 °F 71% 30.06 in 10.0 mi ESE 9.2 mph - N/A   Overcast
6:58 AM 50.2 °F - 41.4 °F 72% 30.07 in 10.0 mi ESE 5.8 mph - 0.01 in   Overcast
6:59 AM 50.0 °F - 41.0 °F 71% 30.06 in 10.0 mi ESE 6.9 mph - N/A Rain Light Rain
7:06 AM 50.0 °F - 42.8 °F 76% 30.05 in 10.0 mi ESE 8.1 mph - N/A   Overcast
7:49 AM 51.8 °F - 41.0 °F 67% 30.04 in 8.0 mi SE 10.4 mph - N/A Rain Light Rain
7:58 AM 50.9 °F - 42.3 °F 72% 30.06 in 9.0 mi SE 8.1 mph - 0.01 in Rain Light Rain
8:00 AM 50.0 °F - 42.8 °F 76% 30.05 in 10.0 mi SE 9.2 mph - N/A   Overcast
8:37 AM 51.8 °F - 44.6 °F 76% 30.04 in 10.0 mi SE 11.5 mph - N/A Rain Light Rain
8:55 AM 51.8 °F - 44.6 °F 76% 30.03 in 10.0 mi SE 11.5 mph - N/A   Overcast
8:58 AM 51.8 °F - 44.6 °F 76% 30.04 in 10.0 mi SE 12.7 mph - 0.00 in   Overcast
9:37 AM 53.6 °F - 46.4 °F 77% 30.04 in 10.0 mi SSE 12.7 mph - N/A Rain Light Rain
9:58 AM 52.7 °F - 48.9 °F 87% 30.02 in 10.0 mi SE 12.7 mph - 0.02 in Rain Light Rain
9:59 AM 53.6 °F - 50.0 °F 88% 30.01 in 10.0 mi SE 12.7 mph - N/A   Overcast
10:19 AM 53.6 °F - 50.0 °F 88% 30.00 in 10.0 mi SE 12.7 mph - N/A   Overcast
10:21 AM 53.6 °F - 50.0 °F 88% 30.00 in 10.0 mi SE 11.5 mph - N/A   Overcast
10:26 AM 53.6 °F - 50.0 °F 88% 30.00 in 10.0 mi SE 11.5 mph - N/A   Overcast
10:32 AM 53.6 °F - 51.8 °F 94% 30.00 in 10.0 mi SE 12.7 mph - N/A Rain Light Rain
10:37 AM 53.6 °F - 51.8 °F 94% 29.99 in 10.0 mi SE 15.0 mph - N/A Rain Light Rain
10:38 AM 53.6 °F - 51.8 °F 94% 29.99 in 10.0 mi SSE 15.0 mph 24.2 mph N/A Rain Light Rain
10:46 AM 53.6 °F - 51.8 °F 94% 30.00 in 8.0 mi South 18.4 mph - N/A Rain , Thunderstorm Light Thunderstorms and Rain
10:51 AM 53.6 °F - 51.8 °F 94% 29.99 in 2.5 mi SSE 19.6 mph - N/A Rain , Thunderstorm Light Thunderstorms and Rain
10:56 AM 53.6 °F - 51.8 °F 94% 29.98 in 1.5 mi SSE 17.3 mph - N/A Rain , Thunderstorm Heavy Thunderstorms and Rain
10:59 AM 53.2 °F - 51.6 °F 94% 29.99 in 1.8 mi SSE 16.1 mph - 0.10 in Rain , Thunderstorm Heavy Thunderstorms and Rain
11:04 AM 53.6 °F - 51.8 °F 94% 29.98 in 2.5 mi SSE 17.3 mph - N/A Rain , Thunderstorm Light Thunderstorms and Rain
11:05 AM 53.6 °F - 51.8 °F 94% 29.98 in 5.0 mi SSE 17.3 mph - N/A Thunderstorm Overcast
11:09 AM 53.6 °F - 51.8 °F 94% 29.97 in 10.0 mi SSE 16.1 mph - N/A Thunderstorm Overcast
11:39 AM 53.6 °F - 53.6 °F 100% 29.95 in 10.0 mi SSE 11.5 mph - N/A Rain Light Rain
11:58 AM 54.1 °F - 52.7 °F 95% 29.96 in 10.0 mi South 15.0 mph - N/A Rain Light Rain
11:59 AM 53.6 °F - 53.6 °F 100% 29.96 in 9.0 mi South 13.8 mph - N/A Rain , Thunderstorm Light Thunderstorms and Rain
12:04 PM 53.6 °F - 53.6 °F 100% 29.95 in 3.0 mi South 10.4 mph - N/A Rain , Thunderstorm Light Thunderstorms and Rain
12:09 PM 53.6 °F - 53.6 °F 100% 29.94 in 2.5 mi South 15.0 mph - N/A Rain , Thunderstorm Light Thunderstorms and Rain
12:14 PM 53.6 °F - 53.6 °F 100% 29.93 in 5.0 mi South 12.7 mph - N/A Rain , Thunderstorm Light Thunderstorms and Rain
12:19 PM 53.6 °F - 53.6 °F 100% 29.92 in 5.0 mi South 15.0 mph - N/A Rain , Thunderstorm Light Rain
12:40 PM 53.6 °F - 53.6 °F 100% 29.91 in 7.0 mi South 16.1 mph - N/A Rain Light Rain
12:58 PM 54.3 °F - 53.6 °F 97% 29.94 in 10.0 mi South 15.0 mph - 0.12 in Rain , Thunderstorm Light Rain
1:03 PM 53.6 °F - 53.6 °F 100% 29.94 in 6.0 mi South 12.7 mph - N/A Rain , Thunderstorm Rain
1:05 PM 55.4 °F - 53.6 °F 94% 29.94 in 3.0 mi South 16.1 mph 20.7 mph N/A Rain , Thunderstorm Heavy Thunderstorms and Rain
1:15 PM 55.4 °F - 53.6 °F 94% 29.96 in 2.0 mi South 12.7 mph - N/A Rain , Thunderstorm Light Thunderstorms and Rain
1:20 PM 55.4 °F - 53.6 °F 94% 29.96 in 4.0 mi SSW 9.2 mph - N/A Rain , Thunderstorm Thunderstorms and Rain
1:21 PM 55.4 °F - 53.6 °F 94% 29.96 in 5.0 mi South 11.5 mph 20.7 mph N/A Rain , Thunderstorm Rain
1:26 PM 55.4 °F - 53.6 °F 94% 29.96 in 5.0 mi South 11.5 mph 20.7 mph N/A Rain , Thunderstorm Light Rain
1:27 PM 55.4 °F - 53.6 °F 94% 29.95 in 5.0 mi South 10.4 mph 20.7 mph N/A Rain , Thunderstorm Light Thunderstorms and Rain
1:32 PM 55.4 °F - 53.6 °F 94% 29.96 in 7.0 mi SSW 11.5 mph 20.7 mph N/A Rain , Thunderstorm Light Thunderstorms and Rain
1:37 PM 55.4 °F - 55.4 °F 100% 29.95 in 6.0 mi South 10.4 mph - N/A Rain , Thunderstorm Thunderstorms and Rain
1:42 PM 55.4 °F - 55.4 °F 100% 29.94 in 5.0 mi South 10.4 mph - N/A Rain , Thunderstorm Rain
1:47 PM 55.4 °F - 55.4 °F 100% 29.94 in 5.0 mi South 11.5 mph - N/A Rain Light Rain
1:58 PM 55.2 °F - 55.0 °F 99% 29.95 in 5.0 mi South 8.1 mph - 0.25 in Rain Light Rain
2:19 PM 55.4 °F - 55.4 °F 100% 29.94 in 5.0 mi South 5.8 mph - N/A Rain Rain
2:58 PM 55.4 °F - 55.4 °F 100% 29.95 in 5.0 mi SSE 8.1 mph - 0.17 in Rain Light Rain
3:08 PM 55.4 °F - 55.4 °F 100% 29.93 in 5.0 mi South 8.1 mph - N/A Rain , Thunderstorm Light Rain
3:13 PM 55.4 °F - 55.4 °F 100% 29.93 in 6.0 mi South 8.1 mph - N/A Rain , Thunderstorm Light Rain
3:21 PM 55.4 °F - 55.4 °F 100% 29.92 in 9.0 mi South 9.2 mph - N/A Rain , Thunderstorm Light Thunderstorms and Rain
3:35 PM 55.4 °F - 55.4 °F 100% 29.91 in 8.0 mi SSE 9.2 mph - N/A Rain Light Rain
3:55 PM 57.2 °F - 57.2 °F 100% 29.91 in 10.0 mi SSE 11.5 mph - N/A Rain Light Rain
3:58 PM 56.3 °F - 56.3 °F 100% 29.93 in 10.0 mi SSE 11.5 mph - 0.10 in Rain Light Rain
4:03 PM 57.2 °F - 57.2 °F 100% 29.94 in 9.0 mi South 10.4 mph - N/A Rain Light Rain
4:07 PM 57.2 °F - 57.2 °F 100% 29.94 in 6.0 mi South 10.4 mph - N/A Rain , Thunderstorm Light Thunderstorms and Rain
4:22 PM 57.2 °F - 57.2 °F 100% 29.94 in 6.0 mi SSE 10.4 mph - N/A Rain Light Rain
4:38 PM 57.2 °F - 57.2 °F 100% 29.92 in 6.0 mi SE 11.5 mph - N/A Rain Light Rain
4:58 PM 57.0 °F - 57.0 °F 100% 29.90 in 5.0 mi SSE 15.0 mph - 0.12 in Rain Light Rain
5:23 PM 57.2 °F - 57.2 °F 100% 29.87 in 9.0 mi SSE 11.5 mph - N/A Rain Light Rain
5:33 PM 57.2 °F - 57.2 °F 100% 29.88 in 10.0 mi South 9.2 mph - N/A Rain Light Rain
5:34 PM 57.2 °F - 57.2 °F 100% 29.88 in 10.0 mi South 9.2 mph - N/A   Scattered Clouds
5:58 PM 58.5 °F - 58.5 °F 100% 29.90 in 10.0 mi South 6.9 mph - N/A   Mostly Cloudy
7:45 PM 59.0 °F - 59.0 °F 100% 29.93 in 10.0 mi SSW 6.9 mph - N/A   Mostly Cloudy
7:55 PM 59.0 °F - 59.0 °F 100% 29.93 in 10.0 mi South 9.2 mph - N/A   Mostly Cloudy
8:18 PM 59.0 °F - 59.0 °F 100% 29.94 in 10.0 mi South 10.4 mph - N/A   Overcast
8:28 PM 59.0 °F - 59.0 °F 100% 29.95 in 10.0 mi South 10.4 mph - N/A   Mostly Cloudy
8:33 PM 59.0 °F - 59.0 °F 100% 29.96 in 10.0 mi SSW 9.2 mph - N/A   Overcast
8:35 PM 59.0 °F - 59.0 °F 100% 29.96 in 10.0 mi SSW 11.5 mph - N/A Rain Light Rain
8:40 PM 59.0 °F - 59.0 °F 100% 29.95 in 10.0 mi SSW 9.2 mph - N/A Rain Light Rain
8:55 PM 59.0 °F - 59.0 °F 100% 29.95 in 10.0 mi South 11.5 mph - N/A   Overcast
8:58 PM 59.5 °F - 59.5 °F 100% 29.95 in 10.0 mi South 10.4 mph - 0.01 in   Overcast
9:39 PM 60.8 °F - 60.8 °F 100% 29.96 in 10.0 mi SSW 12.7 mph - N/A   Overcast
9:58 PM 59.9 °F - 59.9 °F 100% 29.95 in 10.0 mi SSW 9.2 mph - N/A   Overcast
10:13 PM 60.8 °F - 60.8 °F 100% 29.95 in 10.0 mi SSW 9.2 mph - N/A   Overcast
10:58 PM 60.3 °F - 60.3 °F 100% 29.97 in 10.0 mi SSW 10.4 mph - N/A   Overcast
11:23 PM 60.8 °F - 60.8 °F 100% 29.96 in 10.0 mi SSW 10.4 mph - N/A   Overcast
11:58 PM 60.6 °F - 60.6 °F 100% 29.99 in 10.0 mi SW 10.4 mph - N/A   Overcast